Location: Solstice Park, West Seattle
(47.5363°N, 122.3905°W)
Time: 08:10:36
(UTC-07:00)

ISS - Pass Details

Date: 20 May 2021
Orbit: 417 x 422 km, 51.6° (Epoch: 18 June)

Event Time Altitude Azimuth Distance (km) Brightness Sun altitude
Rises 00:00:42 0° 288° (WNW) 2,369 0.6 -20.8°
Reaches altitude 10° 00:02:52 10° 295° (WNW) 1,505 -0.4 -20.9°
Maximum altitude 00:06:07 44° 9° (N) 597 -2.6 -21.1°
Enters shadow 00:07:34 27° 66° (ENE) 857 -2.2 -21.1°
